When you browse on this site, cookies collect data to enhance your experience and personalize the content and advertising you see.
Visit our Privacy Policy to learn more. By continuing to use the site, you agree to this use of cookies and data.
  • In Hungary
  • List of Countries
  • For 7 days
  • Water Temperature
  • Satellite Maps
  • Weather Map
  • News
  • Weather Widgets
  • user-avatar
    Login

    Hourly Weather Dol-de-Bretagne

    Today, 24 February, Sunday

    Time Temperature Precipitation Wind Pressure Humidity
    00:00 +9°C° 0 mm 2 mps 771 mmHg 85%
    01:00 +8°C° 0 mm 2 mps 771 mmHg 84%
    02:00 +8°C° 0 mm 2 mps 771 mmHg 82%
    03:00 +7°C° 0 mm 2 mps 770 mmHg 81%
    04:00 +7°C° 0 mm 2 mps 770 mmHg 80%
    05:00 +7°C° 0 mm 2 mps 770 mmHg 80%
    06:00 +6°C° 0 mm 2 mps 770 mmHg 80%
    07:00 +7°C° 0 mm 2 mps 770 mmHg 76%
    08:00 +8°C° 0 mm 2 mps 771 mmHg 73%
    09:00 +9°C° 0 mm 2 mps 771 mmHg 70%
    10:00 +10°C° 0 mm 2 mps 771 mmHg 63%
    11:00 +13°C° 0 mm 2 mps 771 mmHg 57%
    12:00 +15°C° 0 mm 2 mps 771 mmHg 50%
    13:00 +15°C° 0 mm 2 mps 771 mmHg 50%
    14:00 +16°C° 0 mm 2 mps 771 mmHg 50%
    15:00 +16°C° 0 mm 1 mps 771 mmHg 50%
    16:00 +15°C° 0 mm 1 mps 771 mmHg 56%
    17:00 +13°C° 0 mm 1 mps 771 mmHg 62%
    18:00 +11°C° 0 mm 1 mps 771 mmHg 68%
    19:00 +10°C° 0 mm 1 mps 771 mmHg 71%
    20:00 +9°C° 0 mm 2 mps 772 mmHg 73%
    21:00 +8°C° 0 mm 2 mps 772 mmHg 76%
    22:00 +8°C° 0 mm 2 mps 772 mmHg 74%
    23:00 +7°C° 0 mm 2 mps 772 mmHg 73%

    Tomorrow, 25 February, Monday

    Time Temperature Precipitation Wind Pressure Humidity
    00:00 +5°C° 0 mm 3 mps 772 mmHg 71%
    01:00 +5°C° 0 mm 3 mps 772 mmHg 71%
    02:00 +5°C° 0 mm 3 mps 772 mmHg 71%
    03:00 +4°C° 0 mm 3 mps 772 mmHg 71%
    04:00 +5°C° 0 mm 2 mps 772 mmHg 74%
    05:00 +5°C° 0 mm 2 mps 772 mmHg 77%
    06:00 +5°C° 0 mm 2 mps 772 mmHg 79%
    07:00 +6°C° 0 mm 2 mps 772 mmHg 78%
    08:00 +7°C° 0 mm 3 mps 772 mmHg 77%
    09:00 +8°C° 0 mm 3 mps 772 mmHg 75%
    10:00 +10°C° 0 mm 3 mps 772 mmHg 73%
    11:00 +12°C° 0 mm 3 mps 772 mmHg 70%
    12:00 +14°C° 0 mm 3 mps 772 mmHg 67%
    13:00 +14°C° 0 mm 3 mps 772 mmHg 66%
    14:00 +16°C° 0 mm 3 mps 771 mmHg 65%
    15:00 +17°C° 0 mm 3 mps 771 mmHg 63%
    16:00 +15°C° 0 mm 2 mps 771 mmHg 69%
    17:00 +13°C° 0 mm 2 mps 771 mmHg 75%
    18:00 +11°C° 0 mm 1 mps 771 mmHg 81%
    19:00 +10°C° 0 mm 2 mps 771 mmHg 81%
    20:00 +9°C° 0 mm 2 mps 771 mmHg 82%
    21:00 +8°C° 0 mm 2 mps 771 mmHg 83%
    22:00 +8°C° 0 mm 3 mps 771 mmHg 82%
    23:00 +7°C° 0 mm 3 mps 771 mmHg 82%

    Day after tomorrow, 26 February, Tuesday

    Time Temperature Precipitation Wind Pressure Humidity
    00:00 +7°C° 0 mm 3 mps 771 mmHg 81%
    01:00 +7°C° 0 mm 3 mps 770 mmHg 81%
    02:00 +7°C° 0 mm 3 mps 770 mmHg 81%
    03:00 +5°C° 0 mm 3 mps 770 mmHg 81%
    04:00 +5°C° 0 mm 3 mps 770 mmHg 83%
    05:00 +5°C° 0 mm 3 mps 770 mmHg 85%
    06:00 +5°C° 0 mm 3 mps 769 mmHg 87%
    07:00 +7°C° 0 mm 3 mps 769 mmHg 84%
    08:00 +8°C° 0 mm 3 mps 769 mmHg 80%
    09:00 +9°C° 0 mm 3 mps 769 mmHg 77%
    10:00 +10°C° 0 mm 3 mps 769 mmHg 74%
    11:00 +12°C° 0 mm 3 mps 769 mmHg 71%
    12:00 +14°C° 0 mm 3 mps 769 mmHg 68%
    13:00 +14°C° 0 mm 4 mps 768 mmHg 69%
    14:00 +15°C° 0 mm 4 mps 768 mmHg 70%
    15:00 +15°C° 0 mm 4 mps 768 mmHg 71%
    16:00 +14°C° 0 mm 4 mps 767 mmHg 77%
    17:00 +13°C° 0 mm 3 mps 767 mmHg 83%
    18:00 +12°C° 0 mm 3 mps 767 mmHg 89%
    19:00 +11°C° 0 mm 3 mps 767 mmHg 90%
    20:00 +11°C° 0 mm 3 mps 767 mmHg 91%
    21:00 +10°C° 0 mm 4 mps 767 mmHg 92%
    22:00 +10°C° 0 mm 3 mps 767 mmHg 92%
    23:00 +9°C° 0 mm 3 mps 767 mmHg 92%

    27 February, Wednesday

    Time Temperature Precipitation Wind Pressure Humidity
    00:00 +9°C° 0 mm 3 mps 767 mmHg 92%
    01:00 +9°C° 0 mm 3 mps 767 mmHg 92%
    02:00 +8°C° 0 mm 3 mps 767 mmHg 91%
    03:00 +8°C° 0 mm 3 mps 766 mmHg 90%
    04:00 +7°C° 0 mm 4 mps 766 mmHg 89%
    05:00 +7°C° 0 mm 4 mps 766 mmHg 88%
    06:00 +6°C° 0 mm 4 mps 766 mmHg 87%
    07:00 +8°C° 0 mm 4 mps 766 mmHg 83%
    08:00 +9°C° 0 mm 5 mps 766 mmHg 78%
    09:00 +10°C° 0 mm 5 mps 766 mmHg 74%
    10:00 +13°C° 0 mm 5 mps 766 mmHg 71%
    11:00 +14°C° 0 mm 5 mps 765 mmHg 68%
    12:00 +17°C° 0 mm 4 mps 765 mmHg 64%
    13:00 +17°C° 0 mm 4 mps 765 mmHg 64%
    14:00 +18°C° 0 mm 4 mps 764 mmHg 65%
    15:00 +18°C° 0 mm 3 mps 764 mmHg 65%
    16:00 +17°C° 0 mm 3 mps 764 mmHg 71%
    17:00 +15°C° 0 mm 2 mps 764 mmHg 78%
    18:00 +14°C° 0 mm 2 mps 764 mmHg 84%
    19:00 +13°C° 0 mm 2 mps 764 mmHg 85%
    20:00 +12°C° 0 mm 2 mps 764 mmHg 86%
    21:00 +11°C° 0 mm 1 mps 764 mmHg 87%
    22:00 +10°C° 0 mm 2 mps 764 mmHg 87%
    23:00 +10°C° 0 mm 2 mps 763 mmHg 88%

    28 February, Thursday

    Time Temperature Precipitation Wind Pressure Humidity
    00:00 +9°C° 0 mm 2 mps 763 mmHg 89%
    01:00 +9°C° 0 mm 2 mps 763 mmHg 89%
    02:00 +9°C° 0 mm 2 mps 763 mmHg 90%
    03:00 +8°C° 0 mm 2 mps 763 mmHg 90%
    04:00 +8°C° 0 mm 2 mps 763 mmHg 91%
    05:00 +8°C° 0 mm 2 mps 763 mmHg 91%
    06:00 +8°C° 0 mm 2 mps 763 mmHg 92%
    07:00 +8°C° 0 mm 2 mps 763 mmHg 91%
    08:00 +9°C° 0 mm 3 mps 763 mmHg 90%
    09:00 +10°C° 0 mm 3 mps 763 mmHg 89%
    10:00 +11°C° 0 mm 3 mps 763 mmHg 86%
    11:00 +12°C° 0 mm 3 mps 763 mmHg 84%
    12:00 +13°C° 0 mm 3 mps 763 mmHg 82%
    13:00 +13°C° 0 mm 2 mps 763 mmHg 83%
    14:00 +13°C° 0 mm 2 mps 763 mmHg 83%
    15:00 +13°C° 0 mm 1 mps 763 mmHg 84%
    16:00 +12°C° 0 mm 1 mps 763 mmHg 86%
    17:00 +10°C° 0 mm 2 mps 763 mmHg 89%
    18:00 +10°C° 0 mm 2 mps 764 mmHg 91%
    19:00 +10°C° 0 mm 2 mps 764 mmHg 92%
    20:00 +10°C° 0 mm 3 mps 765 mmHg 93%
    21:00 +10°C° 0 mm 3 mps 765 mmHg 94%
    22:00 +9°C° 0 mm 3 mps 765 mmHg 94%
    23:00 +9°C° 0 mm 3 mps 765 mmHg 94%

    1 March, Friday

    Time Temperature Precipitation Wind Pressure Humidity
    00:00 +8°C° 0 mm 2 mps 765 mmHg 93%
    01:00 +8°C° 0 mm 2 mps 765 mmHg 93%
    02:00 +8°C° 0 mm 3 mps 765 mmHg 93%
    03:00 +8°C° 0 mm 3 mps 765 mmHg 93%
    04:00 +8°C° 0 mm 2 mps 765 mmHg 93%
    05:00 +8°C° 0 mm 2 mps 765 mmHg 92%
    06:00 +8°C° 0 mm 1 mps 765 mmHg 92%
    07:00 +10°C° 0 mm 1 mps 765 mmHg 90%
    08:00 +11°C° 0 mm 1 mps 766 mmHg 87%
    09:00 +12°C° 0 mm 1 mps 766 mmHg 85%
    10:00 +13°C° 0 mm 2 mps 766 mmHg 81%
    11:00 +14°C° 0 mm 2 mps 766 mmHg 78%
    12:00 +15°C° 0 mm 2 mps 765 mmHg 74%
    13:00 +16°C° 0 mm 2 mps 765 mmHg 74%
    14:00 +16°C° 0 mm 3 mps 765 mmHg 74%
    15:00 +16°C° 0 mm 3 mps 764 mmHg 74%
    16:00 +14°C° 0 mm 2 mps 764 mmHg 79%
    17:00 +12°C° 0 mm 2 mps 764 mmHg 85%
    18:00 +10°C° 0 mm 2 mps 764 mmHg 91%
    19:00 +10°C° 0 mm 1 mps 764 mmHg 91%
    20:00 +10°C° 0 mm 1 mps 765 mmHg 90%
    21:00 +9°C° 0 mm 1 mps 765 mmHg 89%
    22:00 +9°C° 0 mm 1 mps 765 mmHg 89%
    23:00 +10°C° 0 mm 1 mps 765 mmHg 88%
    Show more